Вернуться в каталог

DELTA 1 DEB

АктивенSSO
NORAD 8980·DEBRIS·🇺🇸 United States

Запущен Jan 22, 1975 с Vandenberg Space Force Base

Loading…

Ближайшие Пролёты (ближайшие 24 часа)

TLE

СвежийSource: Space-Track

Эпоха: Sep 14, 2026, 15:07 UTC

1 08980U 75004BN  26257.63047187  .00000673  00000-0  12339-3 0  9996
2 08980  97.8960 143.2906 0039907  86.9628 273.6143 14.68374360660334

Отслеживайте DELTA 1 DEB в реальном времени с AllMySat

Download on the App Store